[Iaude] MPEC N92: 2024 NW1 [a=2.11,e=0.49,i=3.1,H=26.3]
    mpec at cfa.harvard.edu 
    mpec at cfa.harvard.edu
       
    Mon Jul  8 06:19:22 EDT 2024
    
    
  
M.P.E.C. 2024-N92                                  Issued 2024 July 8, 10:17 UT
     The Minor Planet Electronic Circulars contain information on unusual
         minor planets, routine data on comets and natural satellites,
         and occasional editorial announcements.  They are published
    on behalf of Division F of the International Astronomical Union by the
          Minor Planet Center, Smithsonian Astrophysical Observatory,
                          Cambridge, MA 02138, U.S.A.
			  
             Prepared using the Tamkin Foundation Computer Network
                              MPC at CFA.HARVARD.EDU
            URL https://www.minorplanetcenter.net/    ISSN 1523-6714
                                    2024 NW1                                    
Observations:
     K24N01W* C2024 07 06.42177919 28 51.422-30 34 04.57         21.15wXEN092F52
     K24N01W  C2024 07 06.42767419 28 54.448-30 33 36.37         21.27wXEN092F52
     K24N01W  C2024 07 06.43356919 28 57.423-30 33 08.77         21.10wXEN092F52
     K24N01W  C2024 07 06.51838419 29 40.558-30 26 16.45         21.32GVEN092F51
     K24N01W  C2024 07 06.51902919 29 40.889-30 26 13.40         20.75GVEN092F51
     K24N01W 3C2024 07 07.46133819 38 11.116-29 11 22.93         21.48GVEN092T14
     K24N01W 3C2024 07 07.46232119 38 11.575-29 11 18.30         21.52GVEN092T14
     K24N01W 3C2024 07 07.46329719 38 12.027-29 11 13.71         21.50GVEN092T14
     K24N01W 3C2024 07 07.46427419 38 12.485-29 11 09.14         21.58GVEN092T14
     K24N01W KC2024 07 08.29997 19 45 13.12 -28 06 14.2                VEN092691
     K24N01W KC2024 07 08.32119 19 45 22.47 -28 04 37.1          21.7 RVEN092691
Observer details:
691 Steward Observatory, Kitt Peak-Spacewatch.  Observer T. H. Bressi.  0.9-m
    f/3 reflector + CCD.
F51 Pan-STARRS 1, Haleakala.  Observers J. Herman, T. Lowe, P. Minguez, A.
    Schultz, I. Smith.  Measurers K. Chambers, T. de Boer, J. Fairlamb, H.
    Gao, M. Huber, C.-C. Lin, E. Magnier, Y. Ramanjooloo, R. Wainscoat, R.
    Weryk.  1.8-m Ritchey-Chretien + CCD.
F52 Pan-STARRS 2, Haleakala.  Observers J. Herman, T. Lowe, P. Minguez, A.
    Schultz, I. Smith.  Measurers K. Chambers, T. de Boer, J. Fairlamb, H.
    Gao, M. Huber, C.-C. Lin, E. Magnier, Y. Ramanjooloo, R. Wainscoat, R.
    Weryk.  1.8-m Ritchey-Chretien + CCD.
T14 Canada-France-Hawaii Telescope, Maunakea.  Observers R. Wainscoat, H.
    Januszewski, H. Flewelling.  Measurers R. Weryk, R. Wainscoat.  3.6-m
    f/4.1 reflector + CCD.
Orbital elements:
2024 NW1                                                 Earth MOID = 0.0645 AU
Epoch 2024 Mar. 31.0 TT = JDT 2460400.5                 MPC                     
M 333.52826              (2000.0)            P               Q                  
n   0.32236784     Peri.  332.65945     -0.02643779     +0.99848463             
a   2.1065329      Node   295.79152     -0.90709012     -0.04425232             
e   0.4891624      Incl.    3.07279     -0.42010541     +0.03271349             
P   3.06           H   26.33          G   0.15           U   8                  
Residuals in seconds of arc
240706 F52  0.0   0.0     240706 F51  0.0   0.0     240707 T14  0.0   0.1-
240706 F52  0.2+  0.2+    240707 T14  0.0   0.0     240708 691  0.2-  0.0
240706 F52  0.2-  0.3-    240707 T14  0.0   0.0     240708 691  0.2+  0.0
240706 F51  0.0   0.2+    240707 T14  0.0   0.0
Ephemeris:
2024 NW1                 a,e,i = 2.11, 0.49, 3                   q = 1.0761
Date    TT    R. A. (2000) Decl.     Delta      r    Elong.  Phase     V
2024 06 08    13 49 45.6 -36 27 45   0.09691 1.0867   135.9    40.5    23.0
...
2024 06 23    16 22 53.6 -43 08 18   0.06809 1.0763   150.8    27.4    21.9
...
2024 07 01    18 26 23.2 -37 38 19   0.06757 1.0821   165.2    13.9    21.4
...
2024 07 07    19 34 07.4 -29 46 29   0.07589 1.0916   170.3     9.0    21.5
2024 07 08    19 42 44.1 -28 27 54   0.07791 1.0936   170.4     8.9    21.6
2024 07 09    19 50 40.5 -27 11 22   0.08009 1.0957   170.3     9.0    21.7
...
2024 07 15    20 26 43.7 -20 32 07   0.09600 1.1107   168.6    10.4    22.1
...
2024 07 23    20 54 10.6 -14 27 58   0.1231  1.1366   168.1    10.7    22.7
...
2024 08 07    21 16 22.6 -08 56 11   0.1879  1.2006   172.3     6.5    23.6
A. U. Tomatic                (C) Copyright 2024 MPC           M.P.E.C. 2024-N92
    
    
More information about the Iaude
mailing list